SCP
0 0 0 0 0 0 0 0 0 0 0 0 0 0 0 0 0 0 0 0 0 0 0 0 0 0 0 0 0 0 0 0 0 0 0 0 0 0 0 0 0 0 0 0 0 0 0 0 0 0 0 0 0 0
0 0 0 0 0 0 0 0 0 0 0 0 0 0 0 0 0 0 0 0 0 0 0 0 0 0 0 0 0 0 0 0 0 0 0 0 0 0 0 0 0 0 0 0 0 0 0 0 0 0 0 0 0 0
0 0 0 0 0 0 0 0 0 0 0 0 0 0 0 0 0 0 0 0 0 0 0 0 0 0 0 0 0 0 0 0 0 0 0 0 0 0 0 0 0 0 0 0 0 0 0 0 0 0 0 0 0 0
0 0 0 0 0 0 0 0 0 0 0 0 0 0 0 0 0 0 0 0 0 0 0 0 0 0 0 0 0 0 0 0 0 0 0 0 0 0 0 0 0 0 0 0 0 0 0 0 0 0 0 0 0 0
0 0 0 0 0 0 0 0 0 0 0 0 0 0 0 0 0 0 0 0 0 0 0 0 -0 -0 0 0 0 0 0 0 0 0 0 0 0 0 0 0 0 0 0 0 0 0 0 0 0 0 0 0 0 0
0 0 0 0 0 0 0 0 0 0 0 0 0 0 0 0 0 0 0 0 0 0 0 0 0 0 0 0 0 0 0 0 0 0 0 0 0 0 0 0 0 0 0 0 0 0 0 0 0 0 0 0 0 0
0 0 0 0 0 0 0 0 0 0 0 0 0 0 0 0 0 0 0 0 0 0 0 -0 -0 0 0 0 0 0 0 0 0 0 0 0 0 0 0 0 0 0 0 0 0 0 0 0 0 0 0 0 0 0
0 0 0 0 0 0 0 0 0 0 0 0 0 0 0 0 0 0 0 0 0 0 0 0 0 0 0 -0 0 -0 0 0 0 0 0 0 0 0 0 0 0 0 0 0 0 0 0 0 0 0 0 0 0 0
0 0 0 0 0 0 0 0 0 0 0 0 0 0 0 0 0 0 0 0 0 0 0 0 0 0 0 0 0 0 0 0 0 0 0 0 0 0 0 0 0 0 0 0 0 0 0 0 0 0 0 0 0 0
0 0 0 0 0 0 0 0 0 0 0 0 0 0 0 0 0 0 0 0 0 0 0 0 0 0 0 0 0 0 0 0 0 0 0 0 0 0 0 0 0 0 0 0 0 0 0 0 0 0 0 0 0 0
0 0 0 0 0 0 0 0 0 0 0 0 0 0 0 0 0 0 0 0 0 0 0 0 0 0 0 0 0 0 0 0 0 0 0 0 0 0 0 0 0 0 0 0 0 0 0 0 0 0 0 0 0 0
0 0 0 0 0 0 0 0 0 0 0 0 0 0 0 0 0 0 0 0 0 0 0 0 0 0 -0 0 0 0 0 0 0 0 0 0 0 0 0 0 0 0 0 0 0 0 0 0 0 0 0 0 0 0
0 0 0 0 0 0 0 0 0 0 0 0 0 0 0 0 0 0 0 0 0 0 0 0 0 0 0 0 0 0 0 0 0 0 0 0 0 0 0 0 0 0 0 0 0 0 0 0 0 0 0 0 0 0
0 0 0 0 0 0 0 0 0 0 0 0 0 0 0 0 0 0 0 0 0 0 0 -0 -0 0 0 0 0 0 0 0 0 0 0 0 0 0 0 0 0 0 0 0 0 0 0 0 0 0 0 0 0 0
0 0 0 0 0 0 0 0 0 0 0 0 0 0 0 0 0 0 0 0 0 0 -0 -0 0 0 0 0 0 -0 0 0 0 0 0 0 0 0 0 0 0 0 0 0 0 0 0 0 0 0 0 0 0 0
0 0 0 0 0 0 0 0 0 0 0 0 0 0 0 0 0 0 0 0 -0 -0 -0 -0 0 0 0 0 0 0 -0 0 0 0 0 0 0 0 0 0 0 0 0 0 0 0 0 0 0 0 0 0 0 0
0 0 0 0 0 0 0 0 0 0 0 0 0 0 0 0 0 0 -0 -0 -0 0 0 -0 0 0 0 -0 0 0 0 0 0 0 0 0 -0 0 0 -0 0 0 0 0 0 0 0 0 0 0 0 0 0 0
0 0 0 0 0 0 0 0 0 0 0 0 0 0 0 0 0 -0 0 0 -0 0 0 0 -0 0 0 0 0 0 0 0 0 -0 0 0 0 0 0 -0 0 0 0 0 0 0 0 0 0 0 0 0 0 0
0 0 0 0 0 0 0 0 0 0 0 0 0 0 0 0 -0 -0 -0 -0 -0 -0 0 0 0 0 0 0 -0 -0 -0 -0 0 0 0 -0 0 0 0 0 0 0 0 0 0 0 0 0 0 0 0 0 0 0
0 0 0 0 0 0 0 0 0 0 0 0 0 0 0 0 -0 0 0 0 0 -0 0 0 0 0 0 0 -0 -0 0 0 0 0 0 0 0 0 0 0 0 0 0 0 0 0 0 0 0 0 0 0 0 -0
0 0 0 0 0 0 0 0 0 0 0 0 0 0 0 0 0 0 0 -0 0 0 0 0 0 0 0 0 0 0 0 0 0 0 0 0 0 0 0 0 0 0 0 0 0 0 0 0 0 0 0 -0 -0 -0
0 0 0 0 0 0 0 0 0 0 0 0 0 0 0 0 0 0 -0 -0 -0 0 0 0 0 0 0 0 0 0 0 0 0 -0 0 0 0 0 0 0 0 0 0 0 0 0 0 0 0 -0 -0 -0 -0 -0
0 0 0 0 0 0 0 0 0 0 0 0 0 0 0 0 0 -0 0 0 -0 -0 0 0 0 0 0 0 0 0 0 0 0 0 0 0 0 0 0 0 0 0 0 0 0 0 0 0 -0 -0 0 -0 -0 -0
0 0 0 0 0 0 0 0 0 0 0 0 0 0 0 0 0 0 0 0 -0 -0 0 0 0 0 -0 -0 0 0 0 0 0 0 0 0 0 0 0 0 0 0 0 0 0 0 0 0 0 0 -0 -0 -0 -0
0 0 0 0 0 0 0 0 0 0 0 0 0 0 0 0 0 0 0 0 0 0 0 0 -0 -0 -0 0 0 0 0 0 0 0 0 0 0 0 0 0 0 0 0 0 0 0 0 0 0 -0 -0 -0 -0 -0
0 0 0 0 0 0 0 0 0 0 0 0 0 0 0 0 0 0 -0 -0 0 0 0 0 0 -0 -0 -0 0 0 0 0 0 0 0 0 0 0 0 0 0 0 0 0 0 0 0 0 0 0 0 -0 0 0
0 0 0 0 0 0 0 0 0 0 0 0 0 0 0 0 0 -0 0 0 0 0 0 0 0 0 0 0 0 0 0 0 0 0 0 0 0 0 0 0 0 0 0 0 0 0 0 0 0 0 -0 -0 -0 -0
0 0 0 0 0 0 0 -0 -0 -0 -0 0 0 0 0 0 0 0 0 0 0 0 0 0 0 0 0 0 0 0 0 0 0 0 0 0 0 0 0 0 0 0 0 0 0 0 0 0 0 -0 -0 -0 -0 -0
0 0 0 0 0 0 0 -0 0 0 0 0 0 0 0 0 0 0 0 0 0 0 0 0 0 0 0 0 0 0 0 0 0 0 0 0 0 0 0 0 0 0 0 0 0 0 0 -0 -0 -0 0 -0 -0 -0
0 0 0 0 0 0 0 0 0 0 0 0 0 0 0 0 0 0 0 0 0 0 0 0 0 0 0 0 0 0 0 0 0 0 0 0 0 0 0 0 0 0 0 0 0 0 0 -0 -0 -0 0 -0 -0 -0
0 0 0 0 0 0 0 0 0 0 0 0 0 0 0 0 0 0 0 0 0 0 0 0 0 0 0 0 0 0 0 0 0 0 0 0 0 0 0 0 0 0 0 0 0 0 0 0 -0 -0 -0 -0 -0 -0
0 0 0 0 0 0 0 0 0 0 0 0 0 0 0 0 0 0 0 0 0 0 0 0 0 0 0 0 0 0 0 0 0 0 0 0 0 0 0 0 0 0 0 0 0 0 -0 -0 0 0 0 -0 -0 -0
0 0 0 0 0 0 0 0 0 0 0 0 0 0 0 0 0 0 0 0 0 0 0 0 0 0 0 0 0 0 0 0 0 0 0 0 0 0 0 0 0 0 0 0 0 0 0 0 0 0 0 0 0 0
Wind_Speed_500mb
32 32 33 33 32 32 33 33 34 33 35 35 36 37 36 35 28 20 12 14 12 12 39 39 27 13 9 8 2 17 18 5 7 1 6 8 9 13 8 11 14 13 10 7 5 4 11 21 14 14 16 17 69 54
31 31 34 34 33 32 33 33 33 34 34 34 34 34 33 34 36 28 10 19 23 22 26 34 36 34 31 37 21 10 5 5 7 2 1 2 5 1 7 10 3 3 14 9 16 12 7 11 12 32 30 53 62 53
30 31 33 33 33 32 31 31 31 32 32 32 32 32 31 33 33 36 34 31 30 20 38 33 23 16 22 47 54 33 26 14 11 3 5 4 8 7 7 10 7 5 10 7 5 6 8 9 17 32 38 57 63 54
32 32 31 32 33 32 31 31 32 32 33 33 33 33 33 32 32 36 42 33 21 11 9 19 19 22 21 21 24 45 65 33 20 16 6 5 5 9 6 5 7 9 14 12 6 11 7 5 18 35 41 55 52 48
32 32 32 32 32 32 33 33 33 33 33 33 34 34 33 37 36 36 29 13 7 8 8 37 69 25 15 40 47 44 45 54 56 12 7 8 10 3 5 1 6 10 11 9 10 17 9 8 27 32 46 53 53 54
32 32 34 35 35 35 35 35 35 35 35 36 36 36 36 38 39 34 4 14 17 25 12 9 30 46 34 19 30 52 54 69 46 18 16 23 19 18 8 9 24 57 56 31 15 23 15 19 20 38 50 51 51 48
29 28 30 32 34 33 33 34 36 37 37 37 37 38 37 37 40 23 10 18 25 21 8 12 16 15 35 26 15 20 32 44 41 24 29 26 24 35 7 24 8 33 59 70 60 34 25 36 38 55 54 48 48 42
29 30 33 34 34 34 34 35 36 38 38 39 40 40 39 36 28 6 8 21 20 10 8 5 8 23 31 16 16 17 17 18 20 22 13 25 32 14 17 19 59 60 44 30 29 31 29 32 48 56 46 50 49 47
32 33 33 34 34 34 35 37 38 39 39 38 39 41 22 2 2 4 32 29 17 15 6 7 5 7 31 24 19 21 14 6 18 9 11 19 14 19 14 27 47 65 77 80 69 45 33 29 49 57 56 61 58 54
30 30 30 32 34 34 35 35 36 34 34 37 33 10 4 3 16 29 9 3 4 10 11 8 9 7 19 16 12 24 16 7 7 11 21 17 28 56 46 41 57 74 57 61 67 54 55 48 60 67 68 66 59 51
27 28 30 30 32 31 33 32 31 33 33 21 14 9 19 37 13 5 5 7 8 7 11 13 19 6 13 6 7 12 7 7 7 10 11 8 18 25 67 77 55 59 69 69 62 63 65 65 71 74 71 61 52 43
28 29 29 31 32 32 31 27 25 27 23 24 24 26 18 6 3 4 4 7 4 5 6 8 12 14 14 15 14 12 9 7 13 3 7 7 5 12 52 74 80 65 51 48 40 49 53 68 70 71 72 64 51 38
29 29 30 29 30 27 26 24 20 17 24 18 7 6 6 5 4 7 6 6 5 7 9 9 10 11 13 18 14 7 13 13 12 5 8 5 7 29 25 21 48 43 69 68 58 35 52 55 66 71 71 56 45 37
28 29 26 24 20 20 16 13 17 16 13 5 4 8 6 8 9 9 8 6 10 15 32 43 21 11 19 11 9 12 11 5 8 8 10 4 25 39 39 32 30 35 48 70 61 49 38 55 70 72 60 52 45 38
27 27 22 11 19 23 15 15 17 16 8 6 5 8 10 23 20 23 27 30 46 48 49 28 22 22 10 10 9 10 9 12 9 6 6 28 43 37 42 37 33 29 43 56 68 61 54 64 77 66 52 45 39 37
24 19 6 13 25 21 13 20 20 13 7 8 12 10 21 19 25 23 30 35 42 33 31 17 9 8 10 6 9 12 7 5 5 6 37 52 43 39 40 45 40 31 41 57 68 69 71 84 75 63 55 46 38 29
20 12 10 20 21 17 19 23 15 8 9 9 15 27 35 34 40 45 44 46 37 26 4 10 8 8 7 6 7 13 6 9 31 51 53 45 39 36 23 27 18 36 53 63 75 89 87 73 64 61 57 47 36 39
16 13 17 23 21 24 28 19 8 10 13 22 18 24 28 42 50 59 59 52 35 12 14 7 8 6 6 8 6 9 35 45 46 46 50 35 31 20 10 8 23 52 67 83 88 80 73 66 60 56 52 50 56 59
19 19 16 17 17 15 8 6 9 10 18 21 38 49 48 50 58 56 52 48 46 43 18 10 9 5 6 13 23 39 36 43 42 53 26 19 15 8 19 31 44 64 79 81 77 71 62 56 56 57 61 67 63 54
21 18 14 13 12 7 7 8 10 14 12 12 27 33 26 40 53 58 57 52 45 18 13 8 8 12 15 43 55 41 46 50 42 41 27 31 26 26 42 50 57 69 65 60 60 61 58 52 54 62 69 63 59 54
18 10 13 18 21 13 12 8 12 13 19 15 23 32 29 32 28 37 39 19 17 12 9 25 42 55 50 48 48 40 45 45 35 41 40 28 23 18 26 34 50 55 58 60 61 56 59 65 66 68 62 55 50 43
15 13 14 16 10 10 13 16 13 17 14 22 24 19 17 14 15 12 14 7 10 16 22 41 53 56 56 49 49 30 34 44 30 40 28 15 31 15 13 22 34 48 54 55 59 72 72 69 63 56 52 48 42 33
17 15 11 11 10 10 11 10 11 9 6 8 11 8 8 9 11 18 8 8 9 13 31 32 31 30 29 24 21 15 42 33 27 41 41 17 5 4 23 35 44 50 60 64 70 69 64 58 55 55 50 40 30 23
14 9 7 7 12 9 8 8 10 9 8 6 5 8 7 9 18 6 6 9 15 24 40 27 17 16 18 18 25 20 38 12 28 38 36 40 28 23 32 44 48 55 72 67 65 62 57 53 47 42 36 30 26 21
8 10 10 12 9 7 6 6 8 6 7 6 6 7 6 9 5 5 4 9 19 39 37 32 22 9 16 17 21 30 3 16 25 45 47 51 38 37 43 53 57 62 59 66 61 57 52 47 42 38 38 34 29 26
9 13 17 14 10 9 8 7 7 8 6 7 8 7 5 4 5 6 5 13 29 36 34 28 30 23 2 14 24 3 15 22 38 47 38 29 28 22 28 48 56 60 59 58 57 52 46 40 35 35 37 28 23 20
8 10 18 18 13 10 10 18 24 10 8 6 4 2 2 5 7 7 13 22 34 44 34 22 21 23 7 7 14 20 10 18 30 39 31 24 32 30 40 47 43 50 52 47 40 38 36 34 27 27 30 28 21 16
15 10 10 8 15 18 7 7 6 7 8 10 5 6 6 7 7 11 25 49 43 29 20 10 9 9 10 15 26 17 11 29 36 29 37 22 29 29 42 40 49 48 42 33 32 37 35 27 24 28 30 24 20 15
12 13 9 14 17 15 16 18 12 14 12 17 7 7 9 20 46 71 67 46 24 14 7 2 3 7 26 35 19 6 17 17 34 38 22 27 32 48 50 38 29 41 37 36 36 29 24 26 25 25 20 8 18 19
11 17 11 10 9 10 15 27 23 29 30 33 40 50 59 63 54 32 15 8 8 6 9 8 14 36 28 4 7 8 18 15 29 14 10 30 34 35 41 41 43 41 37 33 28 23 17 16 24 21 11 8 20 22
11 7 11 12 12 22 31 26 37 44 48 48 36 42 46 31 14 8 4 6 12 16 17 15 15 15 9 6 5 6 6 11 16 17 19 20 20 22 38 38 34 24 18 16 8 14 16 16 20 23 21 21 14 17
9 15 8 6 12 25 27 3 7 7 6 5 5 6 6 5 5 8 3 9 14 14 14 12 10 8 10 12 13 8 10 7 11 9 11 15 19 23 32 39 40 24 8 3 16 25 22 18 13 11 15 18 10 14
11 18 19 11 9 10 9 12 5 5 7 6 2 1 3 2 5 5 5 10 11 9 9 9 11 14 17 17 12 13 6 2 2 5 8 12 16 24 30 29 25 17 13 17 29 19 16 15 13 11 18 22 23 15
Wind_Direction_500mb
329 332 335 337 335 336 338 340 342 343 346 348 352 355 358 354 354 356 331 303 300 262 269 267 258 252 260 270 130 312 334 322 345 23 162 212 190 217 156 196 176 174 164 199 116 138 265 165 118 159 204 163 178 192
327 329 331 332 333 333 335 336 338 339 340 343 344 346 349 351 351 357 342 317 305 272 265 277 274 257 268 274 252 228 262 315 255 67 324 293 264 202 178 214 47 211 187 187 175 213 235 238 260 223 177 166 175 179
326 327 329 331 334 332 332 334 336 338 340 342 343 341 340 340 341 341 336 329 320 295 294 277 282 278 271 252 253 245 260 254 241 261 211 236 258 137 190 237 188 238 166 160 81 265 257 286 228 188 178 176 176 181
320 323 327 331 336 338 335 333 333 335 338 341 342 341 339 335 333 332 328 324 305 278 288 280 272 274 273 262 249 242 244 241 236 285 280 223 214 196 231 235 184 203 143 157 249 273 277 215 182 172 172 167 171 179
320 320 321 322 324 328 331 332 333 333 332 332 334 337 335 330 332 336 329 352 341 257 291 301 300 308 298 266 248 238 242 243 246 228 193 221 233 231 231 111 249 190 181 153 214 214 160 209 194 189 179 178 178 173
314 316 317 317 315 313 315 319 322 325 328 329 327 325 325 323 325 342 313 60 28 359 337 307 305 295 320 332 268 251 239 240 226 209 205 225 230 207 211 228 229 238 251 259 225 190 262 278 255 207 190 178 177 181
316 318 321 323 323 318 313 314 317 320 321 322 320 319 317 309 310 312 283 305 317 303 269 293 286 306 341 336 333 293 244 231 226 227 230 243 214 217 209 238 260 225 231 239 240 250 252 245 220 201 191 182 180 181
311 312 316 317 319 320 318 317 315 316 316 316 316 317 310 306 302 321 131 327 321 292 232 268 280 313 351 349 329 316 279 229 232 230 213 208 223 223 249 217 227 234 249 238 227 223 232 239 213 192 189 183 183 184
310 310 313 315 316 315 315 316 316 317 318 316 320 317 316 26 10 192 313 299 263 234 260 230 286 301 345 352 326 310 297 296 248 204 210 192 200 218 208 189 216 225 223 237 242 238 249 230 198 190 191 187 188 182
314 313 314 314 315 316 317 319 318 322 327 327 327 328 292 332 310 311 293 285 218 200 227 231 277 286 331 346 309 335 288 240 270 239 224 222 233 227 228 224 227 232 219 222 226 230 226 214 199 192 194 195 194 190
317 316 316 318 319 318 322 323 324 327 337 345 332 296 291 309 308 230 258 230 176 224 211 221 213 239 291 203 218 239 265 273 261 235 185 238 239 224 225 226 232 238 226 222 228 235 237 225 206 193 190 189 190 189
316 317 317 321 322 321 322 324 325 328 333 321 309 300 320 318 288 267 291 316 239 263 214 204 245 260 279 235 232 245 223 265 256 231 210 239 267 337 220 216 219 220 215 214 218 232 231 223 206 196 190 188 186 186
321 320 320 319 321 320 319 323 325 335 336 326 300 288 297 282 299 197 238 213 247 226 228 255 293 287 266 237 247 254 239 228 305 229 241 209 324 1 353 273 243 240 233 230 230 229 213 208 200 195 187 182 179 179
321 323 323 328 336 337 333 348 336 331 327 303 322 292 219 232 239 222 205 217 271 268 293 300 289 246 220 232 222 236 244 268 252 242 207 137 335 328 334 327 303 251 218 226 222 217 210 207 196 187 181 176 176 176
322 325 322 331 338 340 332 327 324 330 297 270 240 242 238 240 265 271 281 291 286 296 297 298 273 230 210 236 227 241 243 219 208 319 323 321 328 320 329 326 309 246 222 220 225 215 204 193 178 171 171 168 168 164
324 331 340 321 319 314 334 325 315 308 251 243 237 254 266 300 287 281 286 285 304 305 313 271 257 255 234 242 275 235 255 57 3 274 305 315 319 319 329 324 303 235 223 214 207 195 186 172 168 164 160 162 162 162
326 319 302 322 325 332 335 319 304 246 252 245 248 249 261 275 276 279 288 290 301 308 275 265 257 252 293 247 275 331 7 313 305 308 307 312 319 306 310 306 280 202 191 187 178 167 161 161 160 160 158 157 156 150
319 310 298 307 317 321 309 282 247 248 248 249 254 265 253 256 267 280 287 295 290 262 252 247 271 251 273 292 315 293 308 313 322 315 316 317 311 310 282 291 176 177 176 168 156 154 156 157 160 160 157 152 147 146
301 302 305 305 307 313 290 271 229 267 253 273 270 276 277 275 280 283 287 292 287 279 272 254 274 249 249 228 283 302 317 327 320 327 338 354 302 74 152 156 152 156 157 152 153 154 155 158 157 157 154 151 148 148
300 295 288 286 295 286 272 251 232 259 270 269 277 284 278 281 284 284 283 281 275 260 225 224 226 238 236 311 329 322 333 340 336 338 351 340 15 110 119 121 137 147 148 146 146 146 147 149 152 152 150 149 148 149
297 306 273 257 267 238 263 252 248 255 279 263 276 281 282 292 286 282 283 278 210 211 235 246 260 271 287 305 322 311 330 341 343 354 350 340 67 66 91 126 137 144 150 146 142 143 144 145 145 145 146 146 147 148
288 284 282 276 257 249 254 240 245 281 268 264 285 265 275 291 286 280 297 231 232 248 244 257 264 271 284 302 315 314 338 344 355 10 29 42 106 119 122 139 154 151 146 142 141 139 136 136 138 140 144 146 148 150
276 281 264 234 242 238 257 245 244 247 261 279 288 277 267 275 267 309 270 252 258 306 327 311 296 291 298 311 315 319 341 344 359 16 37 85 65 88 127 135 143 148 144 137 135 134 134 135 137 139 142 145 146 146
262 248 236 233 223 259 255 243 236 259 267 250 267 267 264 272 308 265 264 279 303 353 359 344 318 290 292 325 339 336 338 358 26 44 41 39 73 114 117 128 133 135 137 135 136 132 130 130 135 139 142 144 137 124
241 226 221 236 238 246 258 246 228 239 247 231 255 275 281 296 266 268 266 283 327 340 353 2 8 310 302 345 347 325 24 46 29 15 29 31 80 107 121 129 125 136 138 135 133 132 133 132 134 133 136 137 124 114
234 215 198 207 203 197 226 254 225 228 255 253 232 235 257 285 270 255 276 322 332 346 348 352 358 4 59 19 333 100 59 54 24 29 35 59 74 105 117 128 127 136 139 137 136 135 131 130 131 140 145 134 127 116
243 247 222 225 234 228 259 258 266 253 249 257 269 234 310 263 252 245 258 314 332 336 324 327 330 350 16 194 195 115 60 343 337 357 27 70 70 107 138 135 144 139 141 144 139 142 140 143 142 148 152 144 129 116
238 255 207 216 224 236 258 271 258 240 220 226 218 224 230 231 256 235 302 315 330 317 303 297 326 359 146 168 179 203 315 355 10 58 101 104 49 109 140 127 127 138 139 139 138 148 151 153 146 150 157 151 147 136
240 233 249 248 233 223 223 210 231 234 229 192 206 220 233 240 283 294 306 310 301 274 264 182 50 130 159 159 158 273 326 14 58 101 96 43 87 130 132 139 134 141 138 137 141 141 136 143 157 158 160 175 186 173
249 220 230 242 225 228 227 209 245 253 268 275 279 283 283 288 301 315 296 229 220 194 154 128 97 141 157 224 312 93 130 102 116 145 66 44 59 139 153 133 127 130 131 138 148 159 163 158 162 174 191 181 187 185
256 245 247 241 257 255 264 288 279 280 280 278 280 261 268 285 313 343 18 114 143 152 157 150 143 170 180 206 205 168 147 101 80 59 42 52 84 120 162 154 149 149 145 155 158 172 158 167 188 205 213 212 221 208
229 217 239 263 275 294 306 277 277 273 268 264 273 271 278 257 294 10 71 131 141 160 174 183 197 193 180 173 167 148 135 94 49 44 52 93 120 141 141 155 161 160 145 141 173 165 153 152 163 166 192 212 220 219
255 258 246 268 276 288 302 324 290 282 273 272 215 121 338 345 43 48 97 111 121 140 148 141 136 132 138 142 132 141 150 285 230 156 137 141 150 154 155 155 157 156 142 138 151 156 162 170 173 175 176 184 187 188
Wind_Speed_850mb
32 32 33 33 32 32 33 33 34 33 35 35 36 37 36 35 28 20 12 14 12 12 39 39 27 13 9 8 2 17 18 5 7 1 6 8 9 13 8 11 14 13 10 7 5 4 11 21 14 14 16 17 69 54
31 31 34 34 33 32 33 33 33 34 34 34 34 34 33 34 36 28 10 19 23 22 26 34 36 34 31 37 21 10 5 5 7 2 1 2 5 1 7 10 3 3 14 9 16 12 7 11 12 32 30 53 62 53
30 31 33 33 33 32 31 31 31 32 32 32 32 32 31 33 33 36 34 31 30 20 38 33 23 16 22 47 54 33 26 14 11 3 5 4 8 7 7 10 7 5 10 7 5 6 8 9 17 32 38 57 63 54
32 32 31 32 33 32 31 31 32 32 33 33 33 33 33 32 32 36 42 33 21 11 9 19 19 22 21 21 24 45 65 33 20 16 6 5 5 9 6 5 7 9 14 12 6 11 7 5 18 35 41 55 52 48
32 32 32 32 32 32 33 33 33 33 33 33 34 34 33 37 36 36 29 13 7 8 8 37 69 25 15 40 47 44 45 54 56 12 7 8 10 3 5 1 6 10 11 9 10 17 9 8 27 32 46 53 53 54
32 32 34 35 35 35 35 35 35 35 35 36 36 36 36 38 39 34 4 14 17 25 12 9 30 46 34 19 30 52 54 69 46 18 16 23 19 18 8 9 24 57 56 31 15 23 15 19 20 38 50 51 51 48
29 28 30 32 34 33 33 34 36 37 37 37 37 38 37 37 40 23 10 18 25 21 8 12 16 15 35 26 15 20 32 44 41 24 29 26 24 35 7 24 8 33 59 70 60 34 25 36 38 55 54 48 48 42
29 30 33 34 34 34 34 35 36 38 38 39 40 40 39 36 28 6 8 21 20 10 8 5 8 23 31 16 16 17 17 18 20 22 13 25 32 14 17 19 59 60 44 30 29 31 29 32 48 56 46 50 49 47
32 33 33 34 34 34 35 37 38 39 39 38 39 41 22 2 2 4 32 29 17 15 6 7 5 7 31 24 19 21 14 6 18 9 11 19 14 19 14 27 47 65 77 80 69 45 33 29 49 57 56 61 58 54
30 30 30 32 34 34 35 35 36 34 34 37 33 10 4 3 16 29 9 3 4 10 11 8 9 7 19 16 12 24 16 7 7 11 21 17 28 56 46 41 57 74 57 61 67 54 55 48 60 67 68 66 59 51
27 28 30 30 32 31 33 32 31 33 33 21 14 9 19 37 13 5 5 7 8 7 11 13 19 6 13 6 7 12 7 7 7 10 11 8 18 25 67 77 55 59 69 69 62 63 65 65 71 74 71 61 52 43
28 29 29 31 32 32 31 27 25 27 23 24 24 26 18 6 3 4 4 7 4 5 6 8 12 14 14 15 14 12 9 7 13 3 7 7 5 12 52 74 80 65 51 48 40 49 53 68 70 71 72 64 51 38
29 29 30 29 30 27 26 24 20 17 24 18 7 6 6 5 4 7 6 6 5 7 9 9 10 11 13 18 14 7 13 13 12 5 8 5 7 29 25 21 48 43 69 68 58 35 52 55 66 71 71 56 45 37
28 29 26 24 20 20 16 13 17 16 13 5 4 8 6 8 9 9 8 6 10 15 32 43 21 11 19 11 9 12 11 5 8 8 10 4 25 39 39 32 30 35 48 70 61 49 38 55 70 72 60 52 45 38
27 27 22 11 19 23 15 15 17 16 8 6 5 8 10 23 20 23 27 30 46 48 49 28 22 22 10 10 9 10 9 12 9 6 6 28 43 37 42 37 33 29 43 56 68 61 54 64 77 66 52 45 39 37
24 19 6 13 25 21 13 20 20 13 7 8 12 10 21 19 25 23 30 35 42 33 31 17 9 8 10 6 9 12 7 5 5 6 37 52 43 39 40 45 40 31 41 57 68 69 71 84 75 63 55 46 38 29
20 12 10 20 21 17 19 23 15 8 9 9 15 27 35 34 40 45 44 46 37 26 4 10 8 8 7 6 7 13 6 9 31 51 53 45 39 36 23 27 18 36 53 63 75 89 87 73 64 61 57 47 36 39
16 13 17 23 21 24 28 19 8 10 13 22 18 24 28 42 50 59 59 52 35 12 14 7 8 6 6 8 6 9 35 45 46 46 50 35 31 20 10 8 23 52 67 83 88 80 73 66 60 56 52 50 56 59
19 19 16 17 17 15 8 6 9 10 18 21 38 49 48 50 58 56 52 48 46 43 18 10 9 5 6 13 23 39 36 43 42 53 26 19 15 8 19 31 44 64 79 81 77 71 62 56 56 57 61 67 63 54
21 18 14 13 12 7 7 8 10 14 12 12 27 33 26 40 53 58 57 52 45 18 13 8 8 12 15 43 55 41 46 50 42 41 27 31 26 26 42 50 57 69 65 60 60 61 58 52 54 62 69 63 59 54
18 10 13 18 21 13 12 8 12 13 19 15 23 32 29 32 28 37 39 19 17 12 9 25 42 55 50 48 48 40 45 45 35 41 40 28 23 18 26 34 50 55 58 60 61 56 59 65 66 68 62 55 50 43
15 13 14 16 10 10 13 16 13 17 14 22 24 19 17 14 15 12 14 7 10 16 22 41 53 56 56 49 49 30 34 44 30 40 28 15 31 15 13 22 34 48 54 55 59 72 72 69 63 56 52 48 42 33
17 15 11 11 10 10 11 10 11 9 6 8 11 8 8 9 11 18 8 8 9 13 31 32 31 30 29 24 21 15 42 33 27 41 41 17 5 4 23 35 44 50 60 64 70 69 64 58 55 55 50 40 30 23
14 9 7 7 12 9 8 8 10 9 8 6 5 8 7 9 18 6 6 9 15 24 40 27 17 16 18 18 25 20 38 12 28 38 36 40 28 23 32 44 48 55 72 67 65 62 57 53 47 42 36 30 26 21
8 10 10 12 9 7 6 6 8 6 7 6 6 7 6 9 5 5 4 9 19 39 37 32 22 9 16 17 21 30 3 16 25 45 47 51 38 37 43 53 57 62 59 66 61 57 52 47 42 38 38 34 29 26
9 13 17 14 10 9 8 7 7 8 6 7 8 7 5 4 5 6 5 13 29 36 34 28 30 23 2 14 24 3 15 22 38 47 38 29 28 22 28 48 56 60 59 58 57 52 46 40 35 35 37 28 23 20
8 10 18 18 13 10 10 18 24 10 8 6 4 2 2 5 7 7 13 22 34 44 34 22 21 23 7 7 14 20 10 18 30 39 31 24 32 30 40 47 43 50 52 47 40 38 36 34 27 27 30 28 21 16
15 10 10 8 15 18 7 7 6 7 8 10 5 6 6 7 7 11 25 49 43 29 20 10 9 9 10 15 26 17 11 29 36 29 37 22 29 29 42 40 49 48 42 33 32 37 35 27 24 28 30 24 20 15
12 13 9 14 17 15 16 18 12 14 12 17 7 7 9 20 46 71 67 46 24 14 7 2 3 7 26 35 19 6 17 17 34 38 22 27 32 48 50 38 29 41 37 36 36 29 24 26 25 25 20 8 18 19
11 17 11 10 9 10 15 27 23 29 30 33 40 50 59 63 54 32 15 8 8 6 9 8 14 36 28 4 7 8 18 15 29 14 10 30 34 35 41 41 43 41 37 33 28 23 17 16 24 21 11 8 20 22
11 7 11 12 12 22 31 26 37 44 48 48 36 42 46 31 14 8 4 6 12 16 17 15 15 15 9 6 5 6 6 11 16 17 19 20 20 22 38 38 34 24 18 16 8 14 16 16 20 23 21 21 14 17
9 15 8 6 12 25 27 3 7 7 6 5 5 6 6 5 5 8 3 9 14 14 14 12 10 8 10 12 13 8 10 7 11 9 11 15 19 23 32 39 40 24 8 3 16 25 22 18 13 11 15 18 10 14
11 18 19 11 9 10 9 12 5 5 7 6 2 1 3 2 5 5 5 10 11 9 9 9 11 14 17 17 12 13 6 2 2 5 8 12 16 24 30 29 25 17 13 17 29 19 16 15 13 11 18 22 23 15
Wind_Direction_850mb
329 332 335 337 335 336 338 340 342 343 346 348 352 355 358 354 354 356 331 303 300 262 269 267 258 252 260 270 130 312 334 322 345 23 162 212 190 217 156 196 176 174 164 199 116 138 265 165 118 159 204 163 178 192
327 329 331 332 333 333 335 336 338 339 340 343 344 346 349 351 351 357 342 317 305 272 265 277 274 257 268 274 252 228 262 315 255 67 324 293 264 202 178 214 47 211 187 187 175 213 235 238 260 223 177 166 175 179
326 327 329 331 334 332 332 334 336 338 340 342 343 341 340 340 341 341 336 329 320 295 294 277 282 278 271 252 253 245 260 254 241 261 211 236 258 137 190 237 188 238 166 160 81 265 257 286 228 188 178 176 176 181
320 323 327 331 336 338 335 333 333 335 338 341 342 341 339 335 333 332 328 324 305 278 288 280 272 274 273 262 249 242 244 241 236 285 280 223 214 196 231 235 184 203 143 157 249 273 277 215 182 172 172 167 171 179
320 320 321 322 324 328 331 332 333 333 332 332 334 337 335 330 332 336 329 352 341 257 291 301 300 308 298 266 248 238 242 243 246 228 193 221 233 231 231 111 249 190 181 153 214 214 160 209 194 189 179 178 178 173
314 316 317 317 315 313 315 319 322 325 328 329 327 325 325 323 325 342 313 60 28 359 337 307 305 295 320 332 268 251 239 240 226 209 205 225 230 207 211 228 229 238 251 259 225 190 262 278 255 207 190 178 177 181
316 318 321 323 323 318 313 314 317 320 321 322 320 319 317 309 310 312 283 305 317 303 269 293 286 306 341 336 333 293 244 231 226 227 230 243 214 217 209 238 260 225 231 239 240 250 252 245 220 201 191 182 180 181
311 312 316 317 319 320 318 317 315 316 316 316 316 317 310 306 302 321 131 327 321 292 232 268 280 313 351 349 329 316 279 229 232 230 213 208 223 223 249 217 227 234 249 238 227 223 232 239 213 192 189 183 183 184
310 310 313 315 316 315 315 316 316 317 318 316 320 317 316 26 10 192 313 299 263 234 260 230 286 301 345 352 326 310 297 296 248 204 210 192 200 218 208 189 216 225 223 237 242 238 249 230 198 190 191 187 188 182
314 313 314 314 315 316 317 319 318 322 327 327 327 328 292 332 310 311 293 285 218 200 227 231 277 286 331 346 309 335 288 240 270 239 224 222 233 227 228 224 227 232 219 222 226 230 226 214 199 192 194 195 194 190
317 316 316 318 319 318 322 323 324 327 337 345 332 296 291 309 308 230 258 230 176 224 211 221 213 239 291 203 218 239 265 273 261 235 185 238 239 224 225 226 232 238 226 222 228 235 237 225 206 193 190 189 190 189
316 317 317 321 322 321 322 324 325 328 333 321 309 300 320 318 288 267 291 316 239 263 214 204 245 260 279 235 232 245 223 265 256 231 210 239 267 337 220 216 219 220 215 214 218 232 231 223 206 196 190 188 186 186
321 320 320 319 321 320 319 323 325 335 336 326 300 288 297 282 299 197 238 213 247 226 228 255 293 287 266 237 247 254 239 228 305 229 241 209 324 1 353 273 243 240 233 230 230 229 213 208 200 195 187 182 179 179
321 323 323 328 336 337 333 348 336 331 327 303 322 292 219 232 239 222 205 217 271 268 293 300 289 246 220 232 222 236 244 268 252 242 207 137 335 328 334 327 303 251 218 226 222 217 210 207 196 187 181 176 176 176
322 325 322 331 338 340 332 327 324 330 297 270 240 242 238 240 265 271 281 291 286 296 297 298 273 230 210 236 227 241 243 219 208 319 323 321 328 320 329 326 309 246 222 220 225 215 204 193 178 171 171 168 168 164
324 331 340 321 319 314 334 325 315 308 251 243 237 254 266 300 287 281 286 285 304 305 313 271 257 255 234 242 275 235 255 57 3 274 305 315 319 319 329 324 303 235 223 214 207 195 186 172 168 164 160 162 162 162
326 319 302 322 325 332 335 319 304 246 252 245 248 249 261 275 276 279 288 290 301 308 275 265 257 252 293 247 275 331 7 313 305 308 307 312 319 306 310 306 280 202 191 187 178 167 161 161 160 160 158 157 156 150
319 310 298 307 317 321 309 282 247 248 248 249 254 265 253 256 267 280 287 295 290 262 252 247 271 251 273 292 315 293 308 313 322 315 316 317 311 310 282 291 176 177 176 168 156 154 156 157 160 160 157 152 147 146
301 302 305 305 307 313 290 271 229 267 253 273 270 276 277 275 280 283 287 292 287 279 272 254 274 249 249 228 283 302 317 327 320 327 338 354 302 74 152 156 152 156 157 152 153 154 155 158 157 157 154 151 148 148
300 295 288 286 295 286 272 251 232 259 270 269 277 284 278 281 284 284 283 281 275 260 225 224 226 238 236 311 329 322 333 340 336 338 351 340 15 110 119 121 137 147 148 146 146 146 147 149 152 152 150 149 148 149
297 306 273 257 267 238 263 252 248 255 279 263 276 281 282 292 286 282 283 278 210 211 235 246 260 271 287 305 322 311 330 341 343 354 350 340 67 66 91 126 137 144 150 146 142 143 144 145 145 145 146 146 147 148
288 284 282 276 257 249 254 240 245 281 268 264 285 265 275 291 286 280 297 231 232 248 244 257 264 271 284 302 315 314 338 344 355 10 29 42 106 119 122 139 154 151 146 142 141 139 136 136 138 140 144 146 148 150
276 281 264 234 242 238 257 245 244 247 261 279 288 277 267 275 267 309 270 252 258 306 327 311 296 291 298 311 315 319 341 344 359 16 37 85 65 88 127 135 143 148 144 137 135 134 134 135 137 139 142 145 146 146
262 248 236 233 223 259 255 243 236 259 267 250 267 267 264 272 308 265 264 279 303 353 359 344 318 290 292 325 339 336 338 358 26 44 41 39 73 114 117 128 133 135 137 135 136 132 130 130 135 139 142 144 137 124
241 226 221 236 238 246 258 246 228 239 247 231 255 275 281 296 266 268 266 283 327 340 353 2 8 310 302 345 347 325 24 46 29 15 29 31 80 107 121 129 125 136 138 135 133 132 133 132 134 133 136 137 124 114
234 215 198 207 203 197 226 254 225 228 255 253 232 235 257 285 270 255 276 322 332 346 348 352 358 4 59 19 333 100 59 54 24 29 35 59 74 105 117 128 127 136 139 137 136 135 131 130 131 140 145 134 127 116
243 247 222 225 234 228 259 258 266 253 249 257 269 234 310 263 252 245 258 314 332 336 324 327 330 350 16 194 195 115 60 343 337 357 27 70 70 107 138 135 144 139 141 144 139 142 140 143 142 148 152 144 129 116
238 255 207 216 224 236 258 271 258 240 220 226 218 224 230 231 256 235 302 315 330 317 303 297 326 359 146 168 179 203 315 355 10 58 101 104 49 109 140 127 127 138 139 139 138 148 151 153 146 150 157 151 147 136
240 233 249 248 233 223 223 210 231 234 229 192 206 220 233 240 283 294 306 310 301 274 264 182 50 130 159 159 158 273 326 14 58 101 96 43 87 130 132 139 134 141 138 137 141 141 136 143 157 158 160 175 186 173
249 220 230 242 225 228 227 209 245 253 268 275 279 283 283 288 301 315 296 229 220 194 154 128 97 141 157 224 312 93 130 102 116 145 66 44 59 139 153 133 127 130 131 138 148 159 163 158 162 174 191 181 187 185
256 245 247 241 257 255 264 288 279 280 280 278 280 261 268 285 313 343 18 114 143 152 157 150 143 170 180 206 205 168 147 101 80 59 42 52 84 120 162 154 149 149 145 155 158 172 158 167 188 205 213 212 221 208
229 217 239 263 275 294 306 277 277 273 268 264 273 271 278 257 294 10 71 131 141 160 174 183 197 193 180 173 167 148 135 94 49 44 52 93 120 141 141 155 161 160 145 141 173 165 153 152 163 166 192 212 220 219
255 258 246 268 276 288 302 324 290 282 273 272 215 121 338 345 43 48 97 111 121 140 148 141 136 132 138 142 132 141 150 285 230 156 137 141 150 154 155 155 157 156 142 138 151 156 162 170 173 175 176 184 187 188